Regional Weather Roundup
Issued by NWS

Home | Current Version | Previous Version | Text Only | Print | Product List | Glossary Off
Versions: 1 2 3 4 5 6 7 8 9 10 11 12 13 14 15 16 17 18 19 20 21 22 23 24 25 26 27 28 29 30 31 32 33 34 35 36 37 38 39 40 41 42 43 44 45 46 47 48 49 50

000
ASUS45 KSLC 210410
RWRUT

UTAH REGIONAL WEATHER ROUNDUP
NATIONAL WEATHER SERVICE SALT LAKE CITY UT
900 PM MST SAT DEC 20 2014

UTZ001>011-023>025-210500-

NORTHERN UTAH

CITY           SKY/WX    TMP DP  RH WIND       PRES   REMARKS
BRIGHAM CITY   CLOUDY    40  35  80 CALM      30.06S
HILL AFB       CLOUDY    38  35  89 S10       30.05S WCI  31
LOGAN          LGT RAIN  39  34  82 SE5       30.03F
OGDEN          CLOUDY    39  35  86 SE7       30.05S WCI  34
PROVO AIRPORT  CLOUDY    37  34  87 CALM      30.09S
SALT LAKE CITY CLOUDY    41  34  76 SE8       30.06F
VERNAL         CLOUDY    30  27  88 CALM      30.10R
WENDOVER       CLOUDY    36  28  75 CALM      30.05F
HEBER CITY     CLOUDY    34  32  93 CALM      30.06S
WEST JORDAN    CLOUDY    39  37  93 S9        30.07F WCI  33

$$

UTZ012>022-026-027-210500-

SOUTHERN/CENTRAL UTAH

CITY           SKY/WX    TMP DP  RH WIND       PRES   REMARKS
BLANDING       CLOUDY    32  31  98 CALM      30.18F
BRYCE CANYON   CLOUDY    27  24  89 W7        30.11F WCI  19
CEDAR CITY     MOCLDY    34  28  79 NE6       30.10S WCI  29
DELTA          CLOUDY    35  33  92 NE6       30.08S WCI  30
MILFORD        MOCLDY    37  28  70 SW12      30.08R WCI  29
MOAB/CYNLANDS  CLOUDY    36  32  85 NW3       30.11F
PRICE          CLOUDY    31  26  82 CALM      30.10R
ST GEORGE      CLOUDY    43  34  70 CALM      30.15S
KANAB            N/A     34  32  93 CALM      30.16F

$$

REGIONAL REPORTS     COLORADO/ARIZONA

CITY           SKY/WX    TMP DP  RH WIND       PRES   REMARKS
CRAIG, CO      CLOUDY    28  25  88 CALM      30.04F
GRAND JUNCTION CLOUDY    32  31  96 CALM      30.11F
RIFLE          LGT SNOW  30  28  92 CALM      30.10F FOG
MONTROSE       CLOUDY    33  26  75 CALM      30.12S
CORTEZ         CLOUDY    32  29  88 CALM      30.13R
PAGE, AZ       CLOUDY    37  30  75 CALM      30.13F
GRAND CANYON   CLOUDY    31  26  82 CALM      30.15S
KINGMAN        MOCLDY    38  33  82 E5        30.14R WCI  34
FLAGSTAFF      CLOUDY    30  23  75 CALM      30.15F

$$

REGIONAL REPORTS    NEVADA/IDAHO/WYOMING

CITY           SKY/WX    TMP DP  RH WIND       PRES   REMARKS
LAS VEGAS, NV  MOCLDY    50  37  61 S7        30.11R
ELY            CLOUDY    34  30  85 NE3       30.14R
ELKO           LGT RAIN  34  32  92 SW7       30.08F WCI  28
POCATELLO, ID  CLOUDY    39  34  82 S12       29.96F WCI  32
BURLEY         LGT RAIN  39  36  89 SW5       29.96F
EVANSTON, WY   CLOUDY    30  29  96 SW12      30.01F WCI  20
ROCK SPRINGS   CLOUDY    29  26  89 SW18      29.98S WCI  16
KEMMERER       CLOUDY    30  28  93 W8        29.98F WCI  23

$$


USA.gov is the U.S. government's official web portal to all federal, state and local government web resources and services.